Precipitable_Water
0.74 0.76 0.80 0.86 0.90 1.00 1.03 1.03 0.91 0.76 0.76 0.95 0.98 1.17 1.24 1.31 1.31 1.29 1.24 1.35 1.23 1.25 1.32 1.24 1.25 1.23 1.19 1.21 1.28 1.31 1.36 1.38 1.36 1.28 1.24 1.25 1.22 1.13
0.72 0.72 0.74 0.81 0.89 1.02 1.09 1.10 1.10 0.99 0.85 0.98 1.05 1.20 1.24 1.27 1.26 1.26 1.26 1.26 1.25 1.34 1.41 1.34 1.30 1.27 1.24 1.22 1.25 1.30 1.29 1.35 1.37 1.33 1.25 1.24 1.25 1.20
0.68 0.74 0.78 0.78 0.78 0.90 0.99 1.04 1.07 1.10 0.98 1.04 1.08 1.18 1.19 1.04 1.12 1.07 1.10 1.16 1.20 1.20 1.29 1.30 1.28 1.32 1.33 1.32 1.27 1.29 1.28 1.28 1.30 1.36 1.32 1.26 1.26 1.23
0.67 0.68 0.70 0.78 0.75 0.83 0.91 0.88 0.89 1.01 0.94 0.85 0.93 0.92 0.95 1.02 0.99 1.03 1.04 1.03 1.07 1.10 1.28 1.38 1.38 1.37 1.28 1.35 1.35 1.37 1.32 1.30 1.28 1.32 1.37 1.31 1.26 1.25
0.71 0.67 0.68 0.72 0.70 0.77 0.82 0.84 0.88 0.93 0.89 0.87 0.86 0.93 0.88 1.00 1.04 1.18 1.06 1.14 1.22 1.21 1.23 1.31 1.34 1.32 1.38 1.36 1.33 1.37 1.37 1.34 1.32 1.34 1.33 1.32 1.27 1.26
0.72 0.74 0.73 0.74 0.74 0.76 0.78 0.80 0.84 0.83 0.84 0.81 0.77 0.78 0.81 1.07 1.06 0.99 1.02 1.17 1.20 1.31 1.33 1.33 1.34 1.40 1.40 1.37 1.32 1.36 1.34 1.25 1.21 1.22 1.27 1.28 1.31 1.24
0.74 0.74 0.79 0.80 0.81 0.83 0.79 0.76 0.76 0.76 0.73 0.73 0.69 0.65 0.73 0.76 0.77 0.93 0.88 1.06 1.16 1.23 1.33 1.39 1.43 1.40 1.38 1.42 1.37 1.33 1.28 1.22 1.25 1.25 1.22 1.27 1.31 1.28
0.75 0.76 0.78 0.82 0.81 0.83 0.80 0.85 0.85 0.75 0.68 0.70 0.71 0.69 0.73 0.74 0.79 0.78 0.80 0.78 0.76 1.04 1.12 1.10 1.29 1.27 1.30 1.31 1.31 1.28 1.31 1.33 1.30 1.22 1.20 1.19 1.25 1.26
0.82 0.83 0.76 0.78 0.81 0.83 0.84 0.87 0.88 0.87 0.86 0.82 0.77 0.77 0.76 0.81 0.89 0.89 0.93 0.89 0.77 0.93 0.98 0.95 1.07 1.09 1.16 1.16 1.14 1.23 1.28 1.28 1.26 1.22 1.23 1.15 1.13 1.18
0.87 0.91 0.87 0.83 0.81 0.82 0.84 0.86 0.86 0.92 0.91 0.97 0.97 0.92 0.93 0.92 0.93 1.08 1.02 1.08 1.10 1.13 1.19 0.96 1.14 1.09 1.17 1.23 1.21 1.22 1.20 1.20 1.21 1.17 1.19 1.17 1.17 1.13
0.86 0.87 0.84 0.81 0.81 0.83 0.87 0.84 0.87 0.88 0.90 0.87 0.89 0.92 0.99 1.03 1.06 1.03 1.01 0.97 0.90 0.96 1.04 0.96 0.99 1.00 1.05 1.06 1.13 1.15 1.13 1.13 1.14 1.14 1.12 1.12 1.13 1.15
0.73 0.76 0.78 0.75 0.77 0.83 0.85 0.90 0.81 0.82 0.82 0.85 0.98 1.06 1.06 1.03 1.05 1.04 1.02 0.94 0.91 0.87 0.96 0.90 0.92 0.90 0.79 0.89 0.95 0.95 0.98 0.99 1.01 1.02 1.02 1.03 1.05 1.06
0.86 0.79 0.86 0.80 0.87 0.91 0.90 0.87 0.86 0.93 0.87 0.94 0.95 0.96 0.97 0.96 0.94 0.92 0.90 0.84 0.75 0.71 0.79 0.74 0.66 0.62 0.57 0.54 0.57 0.57 0.55 0.56 0.57 0.61 0.68 0.78 0.87 0.92
0.86 0.88 0.89 0.91 0.91 0.91 0.93 0.93 0.93 0.93 0.91 0.87 0.83 0.80 0.77 0.71 0.66 0.64 0.59 0.55 0.54 0.49 0.47 0.46 0.40 0.38 0.35 0.32 0.30 0.36 0.34 0.30 0.29 0.26 0.28 0.30 0.33 0.43
0.83 0.84 0.83 0.82 0.82 0.84 0.83 0.82 0.77 0.69 0.64 0.58 0.52 0.49 0.49 0.49 0.48 0.46 0.45 0.43 0.40 0.38 0.35 0.33 0.29 0.27 0.25 0.21 0.21 0.22 0.23 0.26 0.29 0.28 0.28 0.28 0.29 0.33
0.53 0.53 0.52 0.53 0.53 0.51 0.50 0.50 0.49 0.49 0.46 0.42 0.40 0.40 0.38 0.33 0.28 0.26 0.24 0.24 0.23 0.24 0.28 0.30 0.30 0.30 0.27 0.27 0.27 0.25 0.28 0.24 0.28 0.28 0.30 0.31 0.33 0.33
0.26 0.25 0.23 0.23 0.23 0.23 0.24 0.24 0.25 0.25 0.24 0.25 0.24 0.24 0.25 0.25 0.25 0.26 0.25 0.25 0.23 0.23 0.23 0.27 0.30 0.31 0.31 0.29 0.24 0.25 0.25 0.25 0.27 0.27 0.28 0.28 0.29 0.31
0.28 0.26 0.25 0.25 0.24 0.24 0.24 0.25 0.26 0.26 0.27 0.27 0.26 0.25 0.25 0.25 0.26 0.27 0.28 0.26 0.24 0.25 0.25 0.27 0.27 0.27 0.27 0.29 0.31 0.26 0.26 0.25 0.27 0.31 0.33 0.31 0.30 0.33
0.28 0.28 0.28 0.28 0.27 0.27 0.27 0.27 0.27 0.28 0.29 0.28 0.28 0.28 0.28 0.28 0.28 0.27 0.27 0.27 0.26 0.26 0.27 0.29 0.28 0.27 0.23 0.20 0.28 0.33 0.26 0.29 0.33 0.33 0.36 0.35 0.34 0.35
0.28 0.28 0.28 0.29 0.29 0.29 0.29 0.29 0.29 0.30 0.30 0.30 0.30 0.30 0.29 0.28 0.28 0.28 0.28 0.27 0.26 0.27 0.27 0.30 0.30 0.30 0.27 0.26 0.26 0.29 0.39 0.36 0.36 0.33 0.33 0.36 0.39 0.42
0.25 0.27 0.27 0.29 0.30 0.31 0.31 0.31 0.31 0.31 0.31 0.30 0.30 0.30 0.31 0.31 0.30 0.30 0.30 0.30 0.29 0.28 0.27 0.28 0.32 0.36 0.36 0.36 0.28 0.28 0.34 0.39 0.37 0.33 0.34 0.34 0.34 0.34
0.24 0.24 0.26 0.28 0.29 0.29 0.29 0.31 0.31 0.31 0.31 0.31 0.31 0.31 0.32 0.32 0.31 0.31 0.31 0.30 0.30 0.30 0.30 0.33 0.35 0.35 0.34 0.30 0.28 0.31 0.33 0.34 0.37 0.38 0.40 0.40 0.38 0.33
0.24 0.25 0.26 0.26 0.27 0.29 0.30 0.30 0.30 0.30 0.31 0.31 0.32 0.32 0.33 0.32 0.34 0.34 0.33 0.34 0.33 0.32 0.32 0.32 0.34 0.35 0.33 0.32 0.32 0.32 0.31 0.33 0.34 0.33 0.35 0.41 0.45 0.46
Wind_Speed
57 58 58 57 56 55 55 53 51 48 48 45 44 44 43 41 41 42 42 42 40 41 40 40 38 38 37 37 36 36 36 35 35 34 34 33 32 31
53 53 55 56 55 53 52 52 50 49 47 45 45 42 41 41 42 42 42 43 42 41 41 41 39 39 39 39 38 38 38 38 38 37 36 35 34 33
47 50 51 52 54 54 51 49 48 47 46 44 44 44 43 43 42 43 44 44 44 44 41 42 42 41 41 41 41 41 41 41 41 40 39 38 36 35
41 43 46 47 50 52 51 50 48 47 46 45 43 42 43 43 42 42 42 43 45 44 44 44 43 44 43 44 43 42 41 41 41 42 42 42 40 38
38 38 41 43 45 47 49 48 48 47 46 45 43 43 42 42 41 40 41 41 41 43 45 45 44 45 43 44 44 43 43 43 44 45 45 45 44 42
35 36 36 38 40 42 43 45 45 45 44 44 44 43 42 41 42 41 40 40 40 40 41 42 44 43 45 46 45 46 46 46 46 46 46 46 47 46
30 32 33 33 36 38 39 40 41 41 41 41 41 41 41 40 41 40 41 41 41 42 42 42 43 44 45 45 47 48 48 50 49 48 48 46 46 46
26 29 29 31 32 34 36 37 37 37 38 38 38 39 39 39 39 39 39 40 41 41 40 43 41 42 43 44 44 47 47 47 47 45 44 43 44 45
21 23 25 26 28 29 30 32 34 35 36 36 36 37 37 38 38 37 37 38 39 39 39 41 41 43 41 41 42 40 39 38 39 40 42 44 44 43
19 20 21 23 24 25 26 28 29 30 30 34 35 33 33 34 36 36 34 34 36 35 34 37 37 38 37 36 34 34 36 37 38 40 40 42 45 47
16 16 17 19 21 23 24 23 23 24 25 25 26 27 28 29 30 31 30 30 29 28 30 30 29 30 31 33 34 36 38 40 42 44 46 46 47 49
14 14 14 16 16 17 19 20 20 22 23 22 21 22 24 23 23 24 25 24 24 25 25 26 27 29 32 34 35 37 39 41 44 46 49 50 51 51
7 8 9 10 12 13 15 16 17 17 17 18 18 17 15 16 17 17 19 21 24 26 28 30 32 34 36 37 39 41 44 46 48 51 53 56 57 58
6 6 6 7 9 10 11 12 13 12 12 11 12 13 14 15 17 19 21 24 26 29 32 34 35 37 40 43 44 45 48 51 54 56 57 60 62 64
3 2 2 3 4 4 4 6 7 9 10 11 13 15 16 18 20 22 24 26 28 31 33 35 37 39 41 43 46 48 50 51 55 57 59 62 64 65
3 3 3 3 4 5 7 8 9 11 12 14 16 17 19 20 21 23 25 27 29 30 33 35 37 39 41 44 47 50 52 53 57 60 63 66 68 69
6 7 8 8 9 9 10 10 11 12 13 15 16 18 19 21 22 24 26 28 29 32 34 36 37 40 43 46 48 50 53 56 59 63 66 69 70 69
9 9 10 10 11 12 12 13 14 14 15 17 18 19 21 22 23 25 27 29 31 33 34 36 38 40 42 44 47 50 53 56 58 62 64 63 61 57
13 13 13 14 14 15 15 16 17 17 18 19 20 21 22 24 25 27 29 30 32 33 35 37 38 40 42 44 45 47 51 54 58 58 54 52 51 47
16 17 17 17 18 18 18 19 20 20 21 22 23 24 24 25 27 28 30 31 33 34 35 36 37 39 41 44 47 48 50 52 51 48 44 39 38 36
19 19 20 21 21 21 22 22 23 23 24 24 25 25 26 27 28 29 30 32 34 34 34 35 37 39 41 43 44 45 46 45 41 36 32 29 28 23
20 21 22 23 23 24 24 25 25 25 25 26 26 26 27 27 28 29 30 31 32 33 34 35 36 36 37 38 40 42 41 36 31 27 23 21 20 16
23 23 23 24 24 26 26 26 26 26 26 26 26 27 27 27 27 28 29 31 32 32 33 33 33 33 34 35 36 35 30 26 23 20 17 16 15 13
Wind_Direction
242 242 242 241 241 242 243 244 246 248 249 250 252 252 253 255 255 256 258 257 259 259 262 261 262 262 263 264 265 264 266 268 269 272 275 276 279 281
241 241 241 240 240 241 241 243 244 247 250 249 249 252 254 255 257 257 257 257 258 261 262 258 260 262 262 262 264 266 266 267 268 270 272 274 275 277
241 240 241 240 239 238 240 241 243 245 249 251 251 251 254 257 258 259 258 258 259 258 262 258 260 261 263 264 265 266 266 266 266 268 270 272 274 275
240 239 239 239 238 237 238 240 242 244 248 251 252 254 253 257 258 259 260 259 260 259 260 259 261 260 263 264 264 266 266 266 266 267 269 269 271 272
239 240 239 237 237 237 237 239 242 245 248 250 252 254 256 256 257 259 259 262 261 261 259 260 260 263 262 262 263 265 264 267 269 268 269 268 269 268
238 239 238 237 236 235 237 238 241 244 247 249 252 254 255 255 256 258 261 260 263 262 261 262 260 261 263 265 265 263 264 266 269 268 269 268 266 267
238 236 236 237 236 236 237 238 242 245 247 249 252 253 254 255 257 258 261 261 263 262 263 264 262 263 265 264 267 267 266 266 267 269 268 268 265 263
236 235 236 236 235 236 237 239 241 244 246 248 251 252 254 257 257 259 261 263 263 263 262 263 264 266 267 268 269 270 268 265 266 267 266 265 264 263
234 233 233 234 237 238 239 241 243 245 247 248 250 252 254 256 257 259 263 264 264 265 264 268 267 266 268 270 270 268 266 265 266 266 266 264 263 264
234 234 234 235 236 239 242 242 244 245 249 250 251 253 256 258 258 260 262 269 265 265 267 269 268 267 268 268 268 267 266 267 267 267 270 269 266 263
232 232 233 236 239 240 239 238 240 245 250 250 249 252 255 259 261 260 262 265 268 265 266 270 271 271 268 267 270 269 270 269 271 271 270 271 270 266
228 232 237 237 235 235 233 239 241 250 247 245 249 252 256 257 261 261 259 261 264 266 268 271 272 275 275 273 274 273 274 274 275 274 273 272 271 269
208 212 233 230 235 235 236 238 239 241 240 245 245 249 250 255 258 257 261 264 266 268 273 276 276 278 278 279 279 278 279 279 279 278 277 274 272 269
202 229 236 229 233 235 236 236 237 240 226 234 242 248 255 263 267 268 271 272 275 275 278 279 279 280 281 282 282 283 284 284 283 282 280 278 275 271
138 188 191 189 192 205 201 208 221 230 238 248 255 261 265 270 274 276 279 280 282 282 282 282 283 284 284 284 286 287 289 288 287 286 284 282 279 275
264 264 257 247 240 238 244 250 252 253 257 262 267 270 274 277 280 282 284 287 287 287 289 288 287 286 287 287 289 291 291 290 290 290 288 286 282 278
276 272 270 267 264 264 264 264 266 268 270 272 275 278 280 282 284 287 289 291 291 291 292 292 292 291 291 291 292 293 294 294 294 294 293 291 287 281
278 275 272 272 271 270 270 271 272 275 277 279 280 282 285 287 289 291 293 294 295 295 295 295 295 296 295 295 294 297 298 298 299 299 297 293 291 285
279 277 275 273 272 273 274 275 276 278 281 283 285 286 288 290 293 295 297 297 298 298 298 299 299 299 300 301 301 302 303 303 303 302 299 295 292 287
281 278 276 275 274 274 275 277 278 279 281 284 285 287 290 292 295 298 300 301 302 303 303 302 302 303 304 305 307 306 307 307 306 304 302 300 297 292
282 279 277 277 276 276 276 277 279 279 282 284 287 288 290 293 296 299 302 305 306 306 306 306 306 307 308 309 310 311 312 310 309 306 304 304 308 299
284 282 280 278 277 278 278 279 280 280 282 284 287 289 291 294 296 300 303 306 308 308 308 308 311 312 313 314 315 316 316 314 312 308 306 310 314 304
283 282 281 281 280 279 279 279 280 281 282 284 286 289 291 293 296 300 304 307 310 311 312 313 314 316 317 319 320 322 322 322 319 314 310 310 315 310